Tracking 28091 objects as of 29-Sep-2023
HD Live streaming from Space Station
objects crossing your sky now

STARLINK-5646

Track STARLINK-5646 now!
10-day predictions
STARLINK-5646 is classified as:


NORAD ID: 55461
Int'l Code: 2023-015N
Perigee: 565.5 km
Apogee: 567.0 km
Inclination: 43.0 °
Period: 95.8 minutes
Semi major axis: 6937 km
RCS: Unknown
Launch date: February 2, 2023
Source: United States (US)
Launch site: AIR FORCE EASTERN TEST RANGE (AFETR)
Your satellite tracking list
Your tracking list is empty




NASA's NSSDC Master Catalog

Two Line Element Set (TLE):
1 55461U 23015N   23272.03634923  .00002102  00000-0  17064-3 0  9994
2 55461  43.0038 136.6027 0001072 269.2701  90.8018 15.02535474 36475
Source of the keplerian elements: AFSPC